FW6822 Weather Reports


Display with metric or nautical units.
time (UTC)temp
F
wind
direction
speed
MPH
gust
MPH
rain 1hr
in
rain 24hr
in
rain mn
in
humidity
%
barometer
mb
20260505124534 56 347 2.0 8.0 0.00 0.00 0.00 61 1014.2
20260505123030 56 96 3.0 10.0 0.00 0.00 0.00 60 1014.2
20260505121531 55 330 3.0 11.0 0.00 0.00 0.00 60 1014.2
20260505120048 55 273 3.0 13.0 0.00 0.00 0.00 60 1014.3
20260505114517 54 249 5.0 13.0 0.00 0.00 0.00 60 1014.4
20260505113013 53 303 4.0 11.0 0.00 0.00 0.00 60 1014.6
20260505111509 53 321 6.0 11.0 0.00 0.00 0.00 59 1014.6
20260505101553 53 291 7.0 16.0 0.00 0.00 0.00 61 1014.7
20260505100047 53 337 8.0 18.0 0.00 0.00 0.00 61 1014.7
20260505094542 54 282 5.0 13.0 0.00 0.00 0.00 56 1014.7
20260505093041 54 159 3.0 13.0 0.00 0.00 0.00 55 1014.8
20260505091533 54 331 5.0 13.0 0.00 0.00 0.00 54 1014.9
20260505090039 53 279 6.0 11.0 0.00 0.00 0.00 37 1014.8
20260505084525 53 307 2.0 9.0 0.00 0.00 0.00 32 1014.9
20260505083020 52 280 4.0 9.0 0.00 0.00 0.00 33 1014.9
20260505081516 52 331 4.0 11.0 0.00 0.00 0.00 29 1014.9
20260505080011 50 281 5.0 10.0 0.00 0.00 0.00 17 1015.0
20260505074508 50 356 1.0 7.0 0.00 0.00 0.00 7 1015.0
20260505073004 50 311 1.0 6.0 0.00 0.00 0.00 3 1014.9
20260505071602 49 349 4.0 9.0 0.00 0.00 0.00 1 1014.9
20260505070055 48 286 2.0 8.0 0.00 0.00 0.00 1 1015.0
20260505064550 47 299 3.0 9.0 0.00 0.00 0.00 1 1014.9
20260505063046 47 303 1.0 6.0 0.00 0.00 0.00 1 1014.9
20260505061550 46 292 3.0 8.0 0.00 0.00 0.00 1 1014.9
20260505060037 46 316 4.0 9.0 0.00 0.00 0.00 1 1014.8
20260505054556 46 298 3.0 6.0 0.00 0.00 0.00 1 1014.9
20260505053032 45 284 1.0 6.0 0.00 0.00 0.00 1 1015.0
20260505051525 45 293 2.0 6.0 0.00 0.00 0.00 1 1014.9
20260505041511 44 284 0.0 2.0 0.00 0.00 0.00 1 1014.6
20260505040002 44 305 2.0 5.0 0.00 0.00 0.00 1 1014.6
20260505034558 44 302 1.0 4.0 0.00 0.00 0.00 1 1014.6
20260505033054 44 309 2.0 4.0 0.00 0.00 0.00 1 1014.6
20260505031605 44 292 2.0 4.0 0.00 0.00 0.00 1 1014.7
20260505030045 45 276 0.0 3.0 0.00 0.00 0.00 1 1014.8
20260505024542 45 283 3.0 6.0 0.00 0.00 0.00 2 1014.7
20260505023037 46 291 2.0 5.0 0.00 0.00 0.00 4 1014.7
20260505021532 46 261 2.0 5.0 0.00 0.00 0.00 10 1014.7
20260505020032 47 299 3.0 7.0 0.00 0.00 0.00 10 1014.7
20260505014528 47 246 3.0 9.0 0.00 0.00 0.00 9 1014.7
20260505013019 47 343 2.0 9.0 0.00 0.00 0.00 1 1014.7
20260505011528 47 295 3.0 8.0 0.00 0.00 0.00 1 1014.8
20260505010011 48 296 6.0 9.0 0.00 0.00 0.00 1 1014.8
20260505004513 48 323 7.0 12.0 0.00 0.00 0.00 1 1014.9
20260505003002 49 287 4.0 8.0 0.00 0.00 0.00 1 1014.8
20260505001600 49 291 3.0 9.0 0.00 0.00 0.00 1 1014.9
20260505000112 50 306 3.0 7.0 0.00 0.00 0.00 1 1014.9
20260504234549 51 337 0.0 3.0 0.00 0.00 0.00 1 1014.9
20260504233045 52 352 1.0 4.0 0.00 0.00 0.00 1 1014.9
20260504231540 52 26 1.0 3.0 0.00 0.00 0.00 1 1014.9
20260504230040 53 296 0.0 6.0 0.00 0.00 0.00 1 1014.8
20260504224531 53 296 0.0 3.0 0.00 0.00 0.00 1 1014.9
20260504223028 53 321 2.0 6.0 0.00 0.00 0.00 1 1015.1
20260504221522 53 322 2.0 4.0 0.00 0.00 0.00 1 1015.0
20260504220019 53 311 1.0 3.0 0.00 0.00 0.00 1 1015.0
20260504214514 54 301 4.0 6.0 0.00 0.00 0.00 1 1015.1
20260504213010 54 309 0.0 3.0 0.00 0.00 0.00 1 1015.1
20260504211505 54 325 0.0 1.0 0.00 0.00 0.00 1 1015.0
20260504210001 54 325 0.0 0.0 0.00 0.00 0.00 1 1015.0
20260504204603 54 325 0.0 0.0 0.00 0.00 0.00 1 1014.8
20260504203102 54 325 0.0 2.0 0.00 0.00 0.00 1 1014.8
20260504201549 54 325 0.0 1.0 0.00 0.00 0.00 1 1014.6
20260504200044 55 300 2.0 4.0 0.00 0.00 0.00 1 1014.6
20260504194540 55 332 0.0 2.0 0.00 0.00 0.00 1 1014.6
20260504193035 55 334 0.0 3.0 0.00 0.00 0.00 1 1014.4
20260504191531 55 334 0.0 3.0 0.00 0.00 0.00 1 1014.3
20260504190027 55 332 0.0 2.0 0.00 0.00 0.00 1 1014.4
20260504184522 55 335 1.0 7.0 0.00 0.00 0.00 1 1014.3
20260504183017 55 310 2.0 3.0 0.00 0.00 0.00 1 1014.3
20260504181513 55 322 2.0 4.0 0.00 0.00 0.00 1 1014.2
20260504180011 55 343 0.0 4.0 0.00 0.00 0.00 1 1014.1
20260504174504 55 270 0.0 3.0 0.00 0.00 0.00 1 1014.1
20260504173100 55 291 1.0 8.0 0.00 0.00 0.00 1 1014.1
20260504171557 56 28 2.0 9.0 0.00 0.00 0.00 4 1014.1
20260504140108 59 318 4.0 13.0 0.00 0.00 0.00 49 1014.0